Tiempo atmosférico en la estación meteorológica de Villarino De Los Aires, Salamanca (700 m.)



Fecha
DESCASC
Temp. máxima en grados centígrados (hora)
DESCASC
Temp. mínima en grados centígrados (hora)
DESCASC
Temp. media en grados centígrados
DESCASC
Racha de viento máxima en m/sg (hora)
DESCASC
Velocidad máxima media en intervalos de 10 minutos(hora)
DESCASC
Precipitaciones diarias en mm
DESCASC
Precipitaciones de 00:00 a 06:00 en mm
DESCASC
Precipitaciones de 06:00 a 12:00 en mm
DESCASC
Precipitaciones de 12:00 a 18:00 en mm
DESCASC
Precipitaciones de 18:00 a 24:00 en mm
DESCASC
15-01-2021 2.2 (15:40) -6.4 (-00:0) -2.1 4.44 (15:30) 2.78 (15:20) 0 0 0 0 0
08-01-2021 3.7 (15:50) -4.7 (-00:0) -0.5 16.11 (13:30) 8.33 (13:30) 0 0 0 0 0
09-01-2021 0.8 (13:40) -1.2 (-00:0) -0.2 18.89 (11:30) 12.22 (11:40) 0.2 0 0 0.2 0
11-01-2021 6.3 (16:10) -6.2 (-00:0) 0.1 8.89 (14:50) 5.83 (14:40) 0 0 0 0 0
05-01-2021 7.5 (17:10) -6.8 (-00:0) 0.3 2.78 (03:00) 1.67 (21:40) 0 0 0 0 0
07-01-2021 6.7 (16:10) -5.6 (-00:0) 0.5 7.78 (17:20) 5 (16:20) 0 0 0 0 0
06-01-2021 7.6 (15:00) -5.7 (-00:0) 1 6.11 (15:40) 4.17 (16:40) 0 0 0 0 0
27-12-2020 6.9 (23:30) -3.4 (-00:0) 1.8 20.83 (21:20) 14.17 (21:20) 0.2 0 0 0 0.2
04-01-2021 6.2 (16:30) -2.6 (-00:0) 1.8 7.5 (08:10) 5 (08:00) 0 0 0 0 0
10-01-2021 6.2 (13:10) -2.1 (23:59) 2 13.61 (08:00) 8.06 (06:20) 1.8 0 1.8 0 0
03-01-2021 6.6 (16:40) -2.6 (-00:0) 2 11.11 (14:00) 8.33 (12:40) 0 0 0 0 0
13-01-2021 10.1 (16:50) -6 (-00:0) 2.1 2.78 (21:10) 2.5 (21:10) 0 0 0 0 0
12-01-2021 10.3 (17:20) -5.5 (-00:0) 2.4 3.33 (13:50) 1.67 (13:50) 0 0 0 0 0
16-01-2021 9.4 (17:10) -4.3 (-00:0) 2.5 3.06 (14:40) 1.94 (14:50) 0 0 0 0 0
26-12-2020 9.1 (15:30) -4 (-00:0) 2.6 6.39 (16:00) 3.89 (15:00) 0 0 0 0 0
01-01-2021 6.2 (15:30) -0.7 (-00:0) 2.7 11.67 (14:00) 8.33 (14:20) 0.2 0 0 0.2 0
17-01-2021 12.6 (17:10) -6.9 (-00:0) 2.9 2.78 (14:30) 1.67 (13:10) 0 0 0 0 0
19-01-2021 10.5 (14:30) -4 (-00:0) 3.3 13.33 (22:00) 7.5 (22:30) 0 0 0 0 0
14-01-2021 12.5 (16:50) -5.8 (09:00) 3.3 3.33 (05:10) 2.78 (05:10) 0 0 0 0 0
30-12-2020 6.7 (13:00) 0.1 (00:00) 3.4 10.83 (01:00) 6.94 (05:20) 0 0 0 0 0
02-01-2021 8.6 (16:30) -1.3 (-00:0) 3.7 8.06 (03:50) 5 (03:50) 0 0 0 0 0
29-12-2020 6.9 (15:20) 1.1 (00:00) 4 14.17 (13:30) 9.44 (14:30) 0 0 0 0 0
18-01-2021 13 (16:30) -4.6 (-00:0) 4.2 5 (20:20) 3.89 (20:00) 0 0 0 0 0
25-12-2020 8.7 (15:30) -0.1 (00:00) 4.3 10.83 (13:00) 7.5 (13:00) 0 0 0 0 0
31-12-2020 7.9 (14:50) 1.7 (00:00) 4.8 11.67 (17:30) 7.5 (14:30) 1.2 0 0.2 0.6 0.4
28-12-2020 8.2 (01:30) 2.1 (00:00) 5.1 29.17 (02:30) 17.78 (02:40) 2.6 2.6 0 0 0
24-12-2020 10.1 (15:30) 1.6 (00:00) 5.9 9.17 (15:00) 5 (15:00) 0 0 0 0 0
20-01-2021 9.5 (16:10) 6.3 (00:00) 7.9 18.89 (06:50) 11.39 (06:50) 6.2 0.2 0.4 5 0.6
23-12-2020 10.2 (12:20) 5.9 (23:59) 8 11.11 (06:00) 5.83 (02:30) 0.4 0 0 0.4 0
21-01-2021 11.5 (16:50) 7.3 (00:00) 9.4 19.17 (14:40) 11.11 (14:20) 2.6 0 0.6 1.8 0.2

Gráficas

Temp. máximas Temp. mínimas Temp. medias Precipitaciones Rachas de viento máximas Velocidades máximas media en intervalos de 10 minutos

Datos horarios

Fecha y hora oficial Temperatura (ºC) Velocidad del viento (km/h) Dirección del viento Racha (km/h) Dirección de racha Precipitación (mm) Presión (hPa) Tendencia (hPa) Humedad (%)
2021-01-21 23:00:00 9.8 32 Sudoeste 48 Sudoeste 0 -- -- 87
2021-01-21 22:00:00 9.9 26 Sudoeste 45 Sudoeste 0 -- -- 88
2021-01-21 21:00:00 9.7 27 Sudoeste 45 Sudoeste 0 -- -- 88
2021-01-21 20:00:00 9.5 22 Sudoeste 35 Sudoeste 0 -- -- 90
2021-01-21 19:00:00 10.1 23 Oeste 48 Sudoeste 0.2 -- -- 88
2021-01-21 18:00:00 10.9 23 Oeste 54 Sudoeste 0 -- -- 89
2021-01-21 17:00:00 11.5 31 Sudoeste 54 Oeste 0 -- -- 88
2021-01-21 16:00:00 10.9 35 Sudoeste 57 Sudoeste 0.4 -- -- 92
2021-01-21 15:00:00 9.6 34 Sudoeste 69 Sudoeste 0.4 -- -- 94
2021-01-21 14:00:00 9.2 37 Sudoeste 60 Sudoeste 0.6 -- -- 92
2021-01-21 13:00:00 8.8 32 Sudoeste 52 Sudoeste 0.4 -- -- 94
2021-01-21 12:00:00 8.3 28 Sudoeste 48 Sudoeste 0.4 -- -- 96
2021-01-21 11:00:00 8.1 26 Sudoeste 47 Oeste 0 -- -- 93
2021-01-21 10:00:00 7.8 29 Sudoeste 45 Sudoeste 0.2 -- -- 95
2021-01-21 09:00:00 7.6 21 Sudoeste 39 Sudoeste 0 -- -- 95
2021-01-21 08:00:00 7.7 24 Sudoeste 43 Sudoeste 0 -- -- 94
2021-01-21 07:00:00 7.7 22 Sudoeste 39 Sudoeste 0 -- -- 94
2021-01-21 06:00:00 7.6 21 Sudoeste 38 Sudoeste 0 -- -- 94
2021-01-21 05:00:00 7.7 16 Sudoeste 30 Sudoeste 0 -- -- 93
2021-01-21 04:00:00 7.6 21 Sudoeste 37 Oeste 0 -- -- 94
2021-01-21 03:00:00 7.5 18 Sudoeste 36 Sudoeste 0 -- -- 96
2021-01-21 02:00:00 7.6 21 Sudoeste 37 Sudoeste 0 -- -- 95
2021-01-21 01:00:00 7.9 19 Sudoeste 35 Sudoeste 0 -- -- 93
2021-01-21 00:00:00 8.1 18 Sudoeste 34 Sur 0.4 -- -- 94
2021-01-20 23:00:00 8.1 23 Sudoeste 37 Sudoeste 0 -- -- 94
2021-01-20 22:00:00 8 22 Sudoeste 37 Sur 0 -- -- 93
2021-01-20 21:00:00 8.1 25 Sudoeste 40 Sudoeste 0 -- -- 93
2021-01-20 20:00:00 8.1 26 Sudoeste 48 Sudoeste 0 -- -- 94
2021-01-20 19:00:00 7.9 28 Sudoeste 55 Sudoeste 0.2 -- -- 91
2021-01-20 18:00:00 8.5 18 Sudoeste 43 Sudoeste 2 -- -- 95
2021-01-20 17:00:00 8.4 23 Sudoeste 50 Sudoeste 0.6 -- -- 94
2021-01-20 16:00:00 9.2 26 Sudoeste 52 Sudoeste 0.2 -- -- 92
2021-01-20 15:00:00 9.3 23 Sudoeste 54 Sudoeste 0.6 -- -- 92
2021-01-20 14:00:00 8.6 31 Sudoeste 51 Sudoeste 1.6 -- -- 92
2021-01-20 13:00:00 8.9 28 Sudoeste 53 Sur 0 -- -- 88
2021-01-20 12:00:00 8.8 31 Sudoeste 53 Sur 0 -- -- 84
2021-01-20 11:00:00 7.3 25 Sur 55 Sur 0.4 -- -- 91
2021-01-20 10:00:00 6.3 27 Sur 57 Sur 0 -- -- 89
2021-01-20 09:00:00 6.6 32 Sur 57 Sur 0 -- -- 84
2021-01-20 08:00:00 7 31 Sur 65 Sudoeste 0 -- -- 81
2021-01-20 07:00:00 7 38 Sur 68 Sur 0 -- -- 81
2021-01-20 06:00:00 7 35 Sur 58 Sur 0 -- -- 83
2021-01-20 05:00:00 6.6 32 Sur 56 Sur 0.2 -- -- 86
2021-01-20 04:00:00 7 28 Sur 55 Sur 0 -- -- 80
2021-01-20 03:00:00 6.8 25 Sur 46 Sur 0 -- -- 78
2021-01-20 02:00:00 6.7 26 Sur 48 Sur 0 -- -- 79
2021-01-20 01:00:00 6.7 23 Sur 50 Sur 0 -- -- 78
2021-01-20 00:00:00 6.8 22 Sudoeste 39 Sur 0 -- -- 78
2021-01-19 23:00:00 6.9 23 Sudoeste 47 Sudoeste 0 -- -- 79
2021-01-19 22:00:00 6.6 23 Sudoeste 48 Sur 0 -- -- 77
2021-01-19 21:00:00 6.2 15 Sur 31 Sudoeste 0 -- -- 79
2021-01-19 20:00:00 6 19 Sur 31 Sur 0 -- -- 79
2021-01-19 19:00:00 6 12 Sudoeste 28 Sur 0 -- -- 79
2021-01-19 18:00:00 7.7 18 Sur 31 Sudoeste 0 -- -- 68
2021-01-19 17:00:00 8.9 11 Sur 29 Sudoeste 0 -- -- 62
2021-01-19 16:00:00 9.7 16 Sudoeste 37 Sudoeste 0 -- -- 58
2021-01-19 15:00:00 10.1 17 Sudoeste 30 Sudoeste 0 -- -- 59
2021-01-19 14:00:00 6.5 3 Noroeste 8 Noroeste 0 -- -- 72
2021-01-19 13:00:00 3.5 2 Noroeste 6 Nordeste 0 -- -- 79
2021-01-19 12:00:00 2.5 3 Nordeste 6 Norte 0 -- -- 83
2021-01-19 11:00:00 1.9 2 Nordeste 5 Este 0 -- -- 83
2021-01-19 10:00:00 -1.1 4 Sudeste 8 Sudeste 0 -- -- 97
2021-01-19 09:00:00 -3.3 0 Calma 8 Sudeste 0 -- -- 98
2021-01-19 08:00:00 -3.2 3 Sur 7 Sudeste 0 -- -- 99
2021-01-19 07:00:00 -2.7 0 Calma 4 Este 0 -- -- 97
2021-01-19 06:00:00 -2 5 Sudeste 8 Sudeste 0 -- -- 99
2021-01-19 05:00:00 -1.8 4 Sudeste 8 Sudeste 0 -- -- 96
2021-01-19 04:00:00 -1.7 0 Calma 5 Oeste 0 -- -- 96
2021-01-19 03:00:00 -0.8 0 Calma 2 Noroeste 0 -- -- 96
2021-01-19 02:00:00 -0.5 0 Calma 2 Noroeste 0 -- -- 94
2021-01-19 01:00:00 -0.1 0 Calma 2 Sudoeste 0 -- -- 93
2021-01-19 00:00:00 0.9 0 Calma 4 Sudoeste 0 -- -- 90
2021-01-18 23:00:00 1.4 0 Calma 8 Este 0 -- -- 89
2021-01-18 22:00:00 1.5 3 Nordeste 9 Este 0 -- -- 89
2021-01-18 21:00:00 3.9 4 Sudeste 18 Sudeste 0 -- -- 80
2021-01-18 20:00:00 4 14 Sudeste 17 Sudeste 0 -- -- 79
2021-01-18 19:00:00 5.7 2 Nordeste 4 Nordeste 0 -- -- 70
2021-01-18 18:00:00 11.5 3 Nordeste 7 Norte 0 -- -- 52
2021-01-18 17:00:00 12.3 4 Norte 7 Nordeste 0 -- -- 51
2021-01-18 16:00:00 11.7 4 Nordeste 12 Norte 0 -- -- 52
2021-01-18 15:00:00 9.9 5 Nordeste 12 Nordeste 0 -- -- 56
2021-01-18 14:00:00 8.2 6 Nordeste 9 Nordeste 0 -- -- 59
2021-01-18 13:00:00 6.4 4 Norte 11 Nordeste 0 -- -- 61
2021-01-18 12:00:00 4.2 9 Nordeste 12 Este 0 -- -- 68
2021-01-18 11:00:00 1 3 Nordeste 6 Nordeste 0 -- -- 80
2021-01-18 10:00:00 -0.5 0 Calma 2 Noroeste 0 -- -- 83
2021-01-18 09:00:00 -3.9 0 Calma 8 Este 0 -- -- 96
2021-01-18 08:00:00 -3.9 0 Calma 2 Norte 0 -- -- 97
2021-01-18 07:00:00 -3.8 0 Calma 5 Sudeste 0 -- -- 97
2021-01-18 06:00:00 -3.3 4 Sudeste 6 Este 0 -- -- 96
2021-01-18 05:00:00 -3 0 Calma 2 Oeste 0 -- -- 97
2021-01-18 04:00:00 -2.8 0 Calma 5 Oeste 0 -- -- 95
2021-01-18 03:00:00 -2.2 2 Nordeste 5 Nordeste 0 -- -- 96
2021-01-18 02:00:00 -1.5 0 Calma 2 Noroeste 0 -- -- 94
2021-01-18 01:00:00 -1 0 Calma 0 Calma 0 -- -- 94
2021-01-18 00:00:00 -0.2 0 Calma 4 Este 0 -- -- 91
2021-01-17 23:00:00 -0.2 0 Calma 3 Nordeste 0 -- -- 92
2021-01-17 22:00:00 1.1 0 Calma 5 Nordeste 0 -- -- 86
2021-01-17 21:00:00 1.7 2 Este 4 Nordeste 0 -- -- 80
2021-01-17 20:00:00 3.8 3 Sudeste 5 Sudeste 0 -- -- 73
2021-01-17 19:00:00 4.8 2 Nordeste 4 Este 0 -- -- 64
2021-01-17 18:00:00 9.1 0 Calma 6 Nordeste 0 -- -- 47
2021-01-17 17:00:00 12.5 3 Este 6 Norte 0 -- -- 40
2021-01-17 16:00:00 10 3 Nordeste 7 Norte 0 -- -- 46
2021-01-17 15:00:00 9 3 Nordeste 10 Norte 0 -- -- 49
2021-01-17 14:00:00 7.2 2 Noroeste 9 Nordeste 0 -- -- 58
2021-01-17 13:00:00 4.6 5 Nordeste 8 Este 0 -- -- 70
2021-01-17 12:00:00 0.8 3 Nordeste 6 Nordeste 0 -- -- 88
2021-01-17 11:00:00 -1.1 0 Calma -- -- 0 -- -- 91
2021-01-17 10:00:00 -2.2 0 Calma 0 Calma 0 -- -- 94
2021-01-17 09:00:00 -6.1 0 Calma 2 Norte 0 -- -- 96
2021-01-17 08:00:00 -5.7 0 Calma 3 Nordeste 0 -- -- 96
2021-01-17 07:00:00 -5.6 2 Este 4 Este 0 -- -- 96
2021-01-17 06:00:00 -6.8 0 Calma 2 Norte 0 -- -- 96
2021-01-17 05:00:00 -6.2 0 Calma 4 Nordeste 0 -- -- 95
2021-01-17 04:00:00 -5.6 3 Este 4 Este 0 -- -- 97
2021-01-17 03:00:00 -5.8 2 Nordeste 4 Norte 0 -- -- 97
2021-01-17 02:00:00 -5 4 Sudeste 5 Sudeste 0 -- -- 97
2021-01-17 01:00:00 -4.5 0 Calma 5 Este 0 -- -- 97
2021-01-17 00:00:00 -2.8 4 Este 6 Sudeste 0 -- -- 98
2021-01-16 23:00:00 -2.5 0 Calma 2 Norte 0 -- -- 97
2021-01-16 22:00:00 -1.4 0 Calma 8 Sudeste 0 -- -- 95
2021-01-16 21:00:00 -0.3 3 Este 6 Sudeste 0 -- -- 94
2021-01-16 20:00:00 0.5 0 Calma 5 Este 0 -- -- 91
2021-01-16 19:00:00 1.7 2 Nordeste 4 Sudeste 0 -- -- 87
2021-01-16 18:00:00 6.9 4 Nordeste 6 Noroeste 0 -- -- 67
2021-01-16 17:00:00 9.2 3 Nordeste 8 Norte 0 -- -- 61
2021-01-16 16:00:00 7.5 7 Nordeste 10 Nordeste 0 -- -- 67
2021-01-16 15:00:00 6.8 6 Nordeste 11 Nordeste 0 -- -- 67
2021-01-16 14:00:00 5.4 5 Norte 10 Nordeste 0 -- -- 69
2021-01-16 13:00:00 4 5 Nordeste 9 Nordeste 0 -- -- 86
2021-01-16 12:00:00 0.7 3 Nordeste 5 Nordeste 0 -- -- 92
2021-01-16 11:00:00 -2.9 0 Calma -- -- 0 -- -- 97
2021-01-16 10:00:00 -4.1 0 Calma -- -- 0 -- -- 97
2021-01-16 09:00:00 -4.1 0 Calma -- -- 0 -- -- 97
2021-01-16 08:00:00 -3.7 0 Calma -- -- 0 -- -- 97
2021-01-16 07:00:00 -3.7 0 Calma -- -- 0 -- -- 97
2021-01-16 06:00:00 -3.7 0 Calma -- -- 0 -- -- 98
2021-01-16 05:00:00 -3.3 0 Calma -- -- 0 -- -- 98
2021-01-16 04:00:00 -3.1 0 Calma -- -- 0 -- -- 98
2021-01-16 03:00:00 -2.7 0 Calma 6 Este 0 -- -- 98
2021-01-16 02:00:00 -2.6 4 Este 11 Este 0 -- -- 98
2021-01-16 01:00:00 -2.4 0 Calma 5 Este 0 -- -- 98
2021-01-16 00:00:00 -2.3 2 Nordeste 5 Este 0 -- -- 98
2021-01-15 23:00:00 -2 2 Nordeste 9 Este 0 -- -- 98
2021-01-15 22:00:00 -2.1 3 Nordeste 13 Nordeste 0 -- -- 98
2021-01-15 21:00:00 -1.6 7 Este 13 Este 0 -- -- 98
2021-01-15 20:00:00 -0.9 5 Este 9 Este 0 -- -- 98
2021-01-15 19:00:00 -0.5 6 Este 12 Nordeste 0 -- -- 97
2021-01-15 18:00:00 0.2 5 Nordeste 15 Este 0 -- -- 95
2021-01-15 17:00:00 1.3 9 Este 15 Este 0 -- -- 93
2021-01-15 16:00:00 2 9 Este 16 Nordeste 0 -- -- 90
2021-01-15 15:00:00 1.6 9 Este 15 Nordeste 0 -- -- 93
2021-01-15 14:00:00 0.1 4 Nordeste 9 Norte 0 -- -- 95
2021-01-15 13:00:00 -1.2 4 Nordeste 9 Norte 0 -- -- 96
2021-01-15 12:00:00 -1.8 3 Nordeste 8 Este 0 -- -- 97
2021-01-15 11:00:00 -3.1 3 Nordeste 5 Nordeste 0 -- -- 96
2021-01-15 10:00:00 -4.3 3 Nordeste 6 Norte 0 -- -- 96
2021-01-15 09:00:00 -4.8 0 Calma 7 Sudeste 0 -- -- 96
2021-01-15 08:00:00 -5.3 3 Este 7 Este 0 -- -- 96
2021-01-15 07:00:00 -6.4 3 Nordeste 9 Sudeste 0 -- -- 96
2021-01-15 06:00:00 -5.7 8 Sudeste 12 Sudeste 0 -- -- 97
2021-01-15 05:00:00 -5.9 3 Este 4 Nordeste 0 -- -- 97
2021-01-15 04:00:00 -5.2 0 Calma 4 Nordeste 0 -- -- 96
2021-01-15 03:00:00 -3.6 4 Sudeste 5 Sudeste 0 -- -- 96
2021-01-15 02:00:00 -3.7 0 Calma 2 Noroeste 0 -- -- 95
2021-01-15 01:00:00 -2.9 0 Calma 2 Oeste 0 -- -- 92
2021-01-15 00:00:00 -2.4 0 Calma 6 Este 0 -- -- 88
2021-01-14 23:00:00 -1 0 Calma 10 Sudeste 0 -- -- 86
2021-01-14 22:00:00 -0.1 8 Este 9 Este 0 -- -- 81
2021-01-14 21:00:00 0.4 4 Sudeste 6 Este 0 -- -- 78
2021-01-14 20:00:00 2.4 7 Sudeste 10 Sudeste 0 -- -- 73
2021-01-14 19:00:00 2.9 9 Sudeste 11 Sudeste 0 -- -- 74
2021-01-14 18:00:00 6.4 4 Este 9 Este 0 -- -- 52
2021-01-14 17:00:00 12.3 3 Este 5 Este 0 -- -- 38
2021-01-14 16:00:00 10 2 Nordeste 8 Norte 0 -- -- 45
2021-01-14 15:00:00 7.8 4 Norte 7 Norte 0 -- -- 54
2021-01-14 14:00:00 5.7 3 Norte 11 Norte 0 -- -- 60
2021-01-14 13:00:00 5 6 Este 11 Norte 0 -- -- 65
2021-01-14 12:00:00 1.9 4 Nordeste 8 Nordeste 0 -- -- 76
2021-01-14 11:00:00 -1.2 3 Norte 5 Nordeste 0 -- -- 80
2021-01-14 10:00:00 -2.6 0 Calma 6 Este 0 -- -- 79
2021-01-14 09:00:00 -5.8 4 Este 8 Sudeste 0 -- -- 95
2021-01-14 08:00:00 -5.5 3 Este 5 Sudeste 0 -- -- 93
2021-01-14 07:00:00 -5.3 0 Calma 8 Este 0 -- -- 91
2021-01-14 06:00:00 -4.3 6 Sudeste 12 Este 0 -- -- 87
2021-01-14 05:00:00 -4.3 6 Este 12 Este 0 -- -- 90
2021-01-14 04:00:00 -4 5 Este 6 Este 0 -- -- 89
2021-01-14 03:00:00 -3.3 3 Norte 6 Este 0 -- -- 88
2021-01-14 02:00:00 -3 0 Calma 3 Sudeste 0 -- -- 86
2021-01-14 01:00:00 -2.2 0 Calma 6 Este 0 -- -- 82
2021-01-14 00:00:00 -1.6 0 Calma 4 Nordeste 0 -- -- 86
2021-01-13 23:00:00 -0.8 0 Calma 5 Este 0 -- -- 82
2021-01-13 22:00:00 -0.1 0 Calma 10 Sudeste 0 -- -- 82
2021-01-13 21:00:00 1 7 Sudeste 10 Sudeste 0 -- -- 77
2021-01-13 20:00:00 1.7 7 Sudeste 9 Este 0 -- -- 74
2021-01-13 19:00:00 3.1 8 Este 10 Este 0 -- -- 66
2021-01-13 18:00:00 8.9 2 Norte 5 Norte 0 -- -- 47
2021-01-13 17:00:00 9.8 4 Nordeste 8 Norte 0 -- -- 46
2021-01-13 16:00:00 9.5 4 Norte 10 Nordeste 0 -- -- 48
2021-01-13 15:00:00 7.7 5 Nordeste 10 Norte 0 -- -- 55
2021-01-13 14:00:00 6 5 Norte 10 Nordeste 0 -- -- 60
2021-01-13 13:00:00 3.3 5 Nordeste 9 Nordeste 0 -- -- 69
2021-01-13 12:00:00 2.3 3 Nordeste 5 Nordeste 0 -- -- 72
2021-01-13 11:00:00 -0.2 0 Calma 6 Nordeste 0 -- -- 77
2021-01-13 10:00:00 -1.9 0 Calma 3 Nordeste 0 -- -- 82
2021-01-13 09:00:00 -5.9 0 Calma 8 Sudeste 0 -- -- 94
2021-01-13 08:00:00 -5.4 6 Este 8 Este 0 -- -- 94
2021-01-13 07:00:00 -5.4 0 Calma 0 Calma 0 -- -- 94
2021-01-13 06:00:00 -4.6 0 Calma 4 Sudeste 0 -- -- 95
2021-01-13 05:00:00 -4.2 0 Calma 3 Este 0 -- -- 95
2021-01-13 04:00:00 -3.6 0 Calma 2 Noroeste 0 -- -- 95
2021-01-13 03:00:00 -3.6 2 Oeste 5 Oeste 0 -- -- 93
2021-01-13 02:00:00 -2.9 2 Oeste 3 Oeste 0 -- -- 90
2021-01-13 01:00:00 -2.6 2 Oeste 2 Oeste 0 -- -- 90
2021-01-13 00:00:00 -1.4 0 Calma 2 Este 0 -- -- 87
2021-01-12 23:00:00 -0.4 0 Calma 3 Nordeste 0 -- -- 80
2021-01-12 22:00:00 0.9 0 Calma 4 Nordeste 0 -- -- 76
2021-01-12 21:00:00 2.1 0 Calma 2 Noroeste 0 -- -- 71
2021-01-12 20:00:00 2.5 0 Calma 4 Norte 0 -- -- 68
2021-01-12 19:00:00 3.8 0 Calma 0 Calma 0 -- -- 64
2021-01-12 18:00:00 7.1 0 Calma 5 Noroeste 0 -- -- 53
2021-01-12 17:00:00 9.9 2 Noroeste 8 Noroeste 0 -- -- 46
2021-01-12 16:00:00 9.1 5 Norte 9 Norte 0 -- -- 50
2021-01-12 15:00:00 7.7 5 Noroeste 10 Norte 0 -- -- 54
2021-01-12 14:00:00 6.3 5 Nordeste 12 Nordeste 0 -- -- 59
2021-01-12 13:00:00 3.8 5 Nordeste 11 Nordeste 0 -- -- 67
2021-01-12 12:00:00 3.6 4 Nordeste 6 Nordeste 0 -- -- 70
2021-01-12 11:00:00 0.4 0 Calma 8 Sudeste 0 -- -- 78
2021-01-12 10:00:00 -0.3 2 Este 8 Sudeste 0 -- -- 82
2021-01-12 09:00:00 -5.3 3 Este 5 Sudeste 0 -- -- 93
2021-01-12 08:00:00 -4.9 0 Calma 4 Sudeste 0 -- -- 95
2021-01-12 07:00:00 -4 2 Este 5 Sudeste 0 -- -- 91
2021-01-12 06:00:00 -5.2 0 Calma 3 Noroeste 0 -- -- 93
2021-01-12 05:00:00 -4.2 0 Calma 2 Oeste 0 -- -- 92
2021-01-12 04:00:00 -3.8 0 Calma 3 Este 0 -- -- 90
2021-01-12 03:00:00 -3.5 0 Calma 3 Oeste 0 -- -- 89
2021-01-12 02:00:00 -4.1 3 Oeste 5 Oeste 0 -- -- 90
2021-01-12 01:00:00 -3.6 0 Calma 5 Nordeste 0 -- -- 88
2021-01-12 00:00:00 -2.8 2 Nordeste 8 Este 0 -- -- 88
2021-01-11 23:00:00 -1.4 7 Este 13 Este 0 -- -- 82
2021-01-11 22:00:00 -1.1 6 Este 17 Este 0 -- -- 82
2021-01-11 21:00:00 -0.3 8 Este 10 Este 0 -- -- 79
2021-01-11 20:00:00 0.3 2 Este 7 Este 0 -- -- 79
2021-01-11 19:00:00 1.3 7 Este 15 Este 0 -- -- 74
2021-01-11 18:00:00 3.9 10 Este 23 Este 0 -- -- 62
2021-01-11 17:00:00 5.6 15 Este 26 Este 0 -- -- 56
2021-01-11 16:00:00 6.1 14 Este 30 Nordeste 0 -- -- 53
2021-01-11 15:00:00 5.6 18 Este 32 Este 0 -- -- 56
2021-01-11 14:00:00 5.6 16 Este 26 Nordeste 0 -- -- 55
2021-01-11 13:00:00 4.7 8 Nordeste 18 Nordeste 0 -- -- 62
2021-01-11 12:00:00 1.6 4 Nordeste 7 Nordeste 0 -- -- 73
2021-01-11 11:00:00 1.3 3 Nordeste 8 Este 0 -- -- 74
2021-01-11 10:00:00 -1.7 2 Este 5 Este 0 -- -- 82
2021-01-11 09:00:00 -6.2 0 Calma 4 Sudeste 0 -- -- 95
2021-01-11 08:00:00 -5.4 0 Calma 5 Este 0 -- -- 94
2021-01-11 07:00:00 -5 6 Sudeste 10 Sudeste 0 -- -- 93
2021-01-11 06:00:00 -5 5 Este 9 Sudeste 0 -- -- 91
2021-01-11 05:00:00 -4.9 2 Este 5 Sudeste 0 -- -- 91
2021-01-11 04:00:00 -4.3 2 Oeste 6 Oeste 0 -- -- 90
2021-01-11 03:00:00 -4.2 0 Calma 5 Este -- -- -- 88
2021-01-11 02:00:00 -3.4 3 Oeste 7 Oeste 0 -- -- 88
2021-01-11 01:00:00 -2.8 3 Norte 24 Este 0 -- -- 86
2021-01-11 00:00:00 -2.1 7 Nordeste 28 Este 0 -- -- 82
2021-01-10 23:00:00 -0.9 18 Este 29 Este 0 -- -- 79
2021-01-10 22:00:00 -1.1 13 Este 30 Nordeste 0 -- -- 80
2021-01-10 21:00:00 -0.7 14 Este 22 Este 0 -- -- 81
2021-01-10 20:00:00 0 12 Nordeste 23 Nordeste 0 -- -- 78
2021-01-10 19:00:00 0.7 9 Este 24 Este 0 -- -- 77
2021-01-10 18:00:00 2.7 10 Este 31 Este 0 -- -- 69
2021-01-10 17:00:00 5.2 19 Nordeste 30 Este 0 -- -- 61
2021-01-10 16:00:00 5.7 16 Este 33 Este 0 -- -- 61
2021-01-10 15:00:00 4.4 18 Nordeste 36 Nordeste 0 -- -- 66
2021-01-10 14:00:00 4.6 13 Nordeste 30 Nordeste 0 -- -- 65
2021-01-10 13:00:00 5.7 15 Nordeste 23 Este 0 -- -- 63
2021-01-10 12:00:00 2.8 11 Nordeste 20 Nordeste 0.6 -- -- 75
2021-01-10 11:00:00 4.3 10 Nordeste 24 Nordeste 1 -- -- 70
2021-01-10 10:00:00 0.9 14 Nordeste 41 Este 0.2 -- -- 82
2021-01-10 09:00:00 1 22 Nordeste 40 Nordeste 0 -- -- 81
2021-01-10 08:00:00 0.8 27 Este 49 Este 0 -- -- 82
2021-01-10 07:00:00 0.7 23 Este 47 Este 0 -- -- 83
2021-01-10 06:00:00 -0.1 23 Nordeste 42 Este 0 -- -- 90
2021-01-10 05:00:00 -0.4 20 Nordeste 37 Este 0 -- -- 90
2021-01-10 04:00:00 -0.5 22 Este 41 Nordeste 0 -- -- 90
2021-01-10 03:00:00 -0.6 17 Este 40 Este 0 -- -- 87
2021-01-10 02:00:00 -1 20 Nordeste 41 Nordeste 0 -- -- 91
2021-01-10 01:00:00 -0.8 22 Este 38 Nordeste 0 -- -- 89
2021-01-10 00:00:00 -0.8 24 Nordeste 44 Este 0 -- -- 90
2021-01-09 23:00:00 -0.6 24 Nordeste 48 Nordeste 0 -- -- 89
2021-01-09 22:00:00 -0.4 28 Nordeste 45 Nordeste 0 -- -- 89
2021-01-09 21:00:00 -0.5 26 Nordeste 54 Este 0 -- -- 95
2021-01-09 20:00:00 -0.6 13 Nordeste 28 Nordeste 0 -- -- 98
2021-01-09 19:00:00 -0.6 7 Nordeste 13 Nordeste 0 -- -- 97
2021-01-09 18:00:00 -0.4 9 Nordeste 21 Nordeste 0 -- -- 96
2021-01-09 17:00:00 -0.1 15 Nordeste 28 Nordeste 0.2 -- -- 93
2021-01-09 16:00:00 -0.2 16 Nordeste 29 Nordeste 0 -- -- 93
2021-01-09 15:00:00 0.2 18 Nordeste 47 Nordeste 0 -- -- 89
2021-01-09 14:00:00 0.7 33 Nordeste 56 Nordeste 0 -- -- 80
2021-01-09 13:00:00 0.5 31 Nordeste 65 Nordeste 0 -- -- 74
2021-01-09 12:00:00 0.5 39 Nordeste 68 Nordeste 0 -- -- 69
2021-01-09 11:00:00 0.4 39 Nordeste 68 Nordeste 0 -- -- 67
2021-01-09 10:00:00 -0.7 28 Nordeste 51 Nordeste 0 -- -- 76
2021-01-09 09:00:00 -1.1 26 Nordeste 52 Nordeste 0 -- -- 82
2021-01-09 08:00:00 -1 25 Nordeste 49 Nordeste 0 -- -- 83
2021-01-09 07:00:00 -1.1 27 Nordeste 47 Nordeste 0 -- -- 82
2021-01-09 06:00:00 -1.1 28 Nordeste 50 Nordeste 0 -- -- 81
2021-01-09 05:00:00 -1.1 28 Nordeste 46 Nordeste 0 -- -- 78
2021-01-09 04:00:00 -0.8 20 Nordeste 44 Nordeste 0 -- -- 72
2021-01-09 03:00:00 -0.7 26 Nordeste 47 Nordeste 0 -- -- 70
2021-01-09 02:00:00 -0.7 23 Nordeste 41 Nordeste 0 -- -- 71
2021-01-09 01:00:00 -0.7 21 Nordeste 42 Nordeste 0 -- -- 72
2021-01-09 00:00:00 -0.6 27 Nordeste 42 Este 0 -- -- 72
2021-01-08 23:00:00 -0.4 23 Nordeste 37 Nordeste 0 -- -- 70
2021-01-08 22:00:00 -0.2 19 Nordeste 37 Nordeste 0 -- -- 68
2021-01-08 21:00:00 0 24 Nordeste 43 Este 0 -- -- 67
2021-01-08 20:00:00 0.2 24 Nordeste 49 Nordeste 0 -- -- 66
2021-01-08 19:00:00 0.7 24 Nordeste 45 Nordeste 0 -- -- 64
2021-01-08 18:00:00 0.9 21 Nordeste 47 Nordeste 0 -- -- 62
2021-01-08 17:00:00 2.4 26 Nordeste 41 Este 0 -- -- 58
2021-01-08 16:00:00 3.5 28 Nordeste 43 Este 0 -- -- 54
2021-01-08 15:00:00 3 24 Nordeste 41 Nordeste 0 -- -- 59
2021-01-08 14:00:00 1.6 22 Nordeste 58 Nordeste 0 -- -- 64
2021-01-08 13:00:00 -1.2 27 Nordeste 44 Nordeste 0 -- -- 74
2021-01-08 12:00:00 -0.8 24 Este 43 Nordeste 0 -- -- 74
2021-01-08 11:00:00 -2.6 18 Nordeste 31 Nordeste 0 -- -- 80
2021-01-08 10:00:00 -3.7 17 Nordeste 31 Este 0 -- -- 84
2021-01-08 09:00:00 -4.6 14 Nordeste 23 Nordeste 0 -- -- 89
2021-01-08 08:00:00 -4.2 15 Nordeste 27 Nordeste 0 -- -- 87
2021-01-08 07:00:00 -4.4 13 Nordeste 22 Este 0 -- -- 88
2021-01-08 06:00:00 -4.3 15 Este 24 Este 0 -- -- 88
2021-01-08 05:00:00 -4.4 9 Este 17 Este 0 -- -- 89
2021-01-08 04:00:00 -4.4 6 Nordeste 11 Nordeste 0 -- -- 88
2021-01-08 03:00:00 -4.3 4 Nordeste 11 Nordeste 0 -- -- 85
2021-01-08 02:00:00 -3.7 5 Nordeste 15 Nordeste 0 -- -- 83
2021-01-08 01:00:00 -3.1 6 Nordeste 10 Nordeste 0 -- -- 81
2021-01-08 00:00:00 -2.7 5 Nordeste 13 Este 0 -- -- 79
2021-01-07 23:00:00 -1.9 8 Nordeste 14 Este 0 -- -- 78
2021-01-07 22:00:00 -1.1 8 Este 23 Este 0 -- -- 75
2021-01-07 21:00:00 0.1 11 Este 26 Este 0 -- -- 69
2021-01-07 20:00:00 0.7 14 Este 24 Este 0 -- -- 66
2021-01-07 19:00:00 1.2 14 Este 26 Nordeste 0 -- -- 63
2021-01-07 18:00:00 2.8 15 Nordeste 28 Nordeste 0 -- -- 57
2021-01-07 17:00:00 5.5 15 Nordeste 27 Este 0 -- -- 51
2021-01-07 16:00:00 6.4 15 Este 26 Este 0 -- -- 50
2021-01-07 15:00:00 5.6 17 Nordeste 25 Este 0 -- -- 51
2021-01-07 14:00:00 5 15 Nordeste 27 Nordeste 0 -- -- 56
2021-01-07 13:00:00 3.8 6 Norte 14 Norte 0 -- -- 66
2021-01-07 12:00:00 1.6 6 Norte 10 Norte 0 -- -- 74
2021-01-07 11:00:00 -0.3 3 Nordeste 14 Nordeste 0 -- -- 78
2021-01-07 10:00:00 -1.6 4 Este 9 Nordeste 0 -- -- 82
2021-01-07 09:00:00 -5.5 0 Calma 10 Este 0 -- -- 95
2021-01-07 08:00:00 -5 5 Nordeste 10 Este 0 -- -- 95
2021-01-07 07:00:00 -5.5 2 Nordeste 7 Nordeste 0 -- -- 96
2021-01-07 06:00:00 -5.2 3 Nordeste 6 Nordeste 0 -- -- 94
2021-01-07 05:00:00 -4.6 4 Nordeste 8 Nordeste 0 -- -- 92
2021-01-07 04:00:00 -3.9 3 Nordeste 14 Este 0 -- -- 89
2021-01-07 03:00:00 -3.9 0 Calma 6 Norte 0 -- -- 92
2021-01-07 02:00:00 -4 0 Calma 4 Nordeste 0 -- -- 91
2021-01-07 01:00:00 -3.3 0 Calma 4 Nordeste 0 -- -- 90
2021-01-07 00:00:00 -2.5 2 Nordeste 10 Este 0 -- -- 89
2021-01-06 23:00:00 -1.6 9 Este 11 Este 0 -- -- 84
2021-01-06 22:00:00 -1.3 0 Calma 12 Este 0 -- -- 83
2021-01-06 21:00:00 -0.7 10 Este 14 Este 0 -- -- 81
2021-01-06 20:00:00 0 12 Este 15 Este 0 -- -- 79
2021-01-06 19:00:00 0.5 10 Este 15 Este 0 -- -- 76
2021-01-06 18:00:00 2.8 10 Este 22 Este 0 -- -- 63
2021-01-06 17:00:00 6.6 12 Este 22 Este 0 -- -- 52
2021-01-06 16:00:00 7.2 13 Este 22 Nordeste 0 -- -- 51
2021-01-06 15:00:00 7.6 10 Este 21 Nordeste 0 -- -- 52
2021-01-06 14:00:00 6.2 8 Nordeste 13 Este 0 -- -- 60
2021-01-06 13:00:00 3.7 4 Nordeste 8 Nordeste 0 -- -- 70
2021-01-06 12:00:00 2.8 3 Norte 6 Nordeste 0 -- -- 72
2021-01-06 11:00:00 0.5 0 Calma 6 Sudeste 0 -- -- 77
2021-01-06 10:00:00 -1.7 0 Calma 5 Este 0 -- -- 85
2021-01-06 09:00:00 -5.5 2 Nordeste 5 Sudeste 0 -- -- 94
2021-01-06 08:00:00 -5.7 0 Calma 3 Este 0 -- -- 94
2021-01-06 07:00:00 -4.5 0 Calma 4 Este 0 -- -- 92
2021-01-06 06:00:00 -4.5 3 Este 5 Este 0 -- -- 90
2021-01-06 05:00:00 -4 3 Este 10 Sudeste 0 -- -- 89
2021-01-06 04:00:00 -3.6 5 Sudeste 9 Sudeste 0 -- -- 90
2021-01-06 03:00:00 -3.1 6 Sudeste 8 Sudeste 0 -- -- 88
2021-01-06 02:00:00 -3.2 4 Sudeste 6 Sudeste 0 -- -- 85
2021-01-06 01:00:00 -2.4 4 Sudeste 6 Este 0 -- -- 79
2021-01-06 00:00:00 -2.1 0 Calma 4 Nordeste 0 -- -- 84
2021-01-05 23:00:00 -1 0 Calma 6 Sudeste 0 -- -- 76
2021-01-05 22:00:00 -0.8 4 Este 8 Este 0 -- -- 76
2021-01-05 21:00:00 -0.6 4 Este 5 Este 0 -- -- 75
2021-01-05 20:00:00 -0.6 3 Oeste 4 Oeste 0 -- -- 74
2021-01-05 19:00:00 1.4 0 Calma 3 Sudoeste 0 -- -- 64
2021-01-05 18:00:00 2.7 2 Sudoeste 4 Noroeste 0 -- -- 60
2021-01-05 17:00:00 7.4 2 Oeste 7 Noroeste 0 -- -- 48
2021-01-05 16:00:00 7.2 3 Noroeste 8 Noroeste 0 -- -- 47
2021-01-05 15:00:00 5.7 4 Noroeste 9 Noroeste 0 -- -- 61
2021-01-05 14:00:00 4.4 2 Noroeste 8 Norte 0 -- -- 64
2021-01-05 13:00:00 3.7 0 Calma 4 Norte 0 -- -- 77
2021-01-05 12:00:00 -0.7 0 Calma 5 Norte 0 -- -- 86
2021-01-05 11:00:00 -2.3 0 Calma 3 Noroeste 0 -- -- 90
2021-01-05 10:00:00 -4.9 0 Calma 4 Noroeste 0 -- -- 90
2021-01-05 09:00:00 -6.8 0 Calma 5 Sudeste 0 -- -- 96
2021-01-05 08:00:00 -5.1 3 Sudeste 6 Sudeste 0 -- -- 98
2021-01-05 07:00:00 -5.1 0 Calma 4 Nordeste 0 -- -- 97
2021-01-05 06:00:00 -4.3 0 Calma 3 Norte 0 -- -- 97
2021-01-05 05:00:00 -4.8 3 Sudeste 5 Sudeste 0 -- -- 94
2021-01-05 04:00:00 -3.9 2 Oeste 5 Sur 0 -- -- 93
2021-01-05 03:00:00 -3 4 Oeste 10 Sur 0 -- -- 92
2021-01-05 02:00:00 -3.5 0 Calma 5 Sur 0 -- -- 90
2021-01-05 01:00:00 -2.1 0 Calma 8 Sudoeste 0 -- -- 86
2021-01-05 00:00:00 -2.2 5 Sudoeste 6 Sudoeste 0 -- -- 85
2021-01-04 23:00:00 -1.9 4 Sudoeste 6 Sudoeste 0 -- -- 85
2021-01-04 22:00:00 -1.8 4 Sudoeste 13 Oeste 0 -- -- 85
2021-01-04 21:00:00 -0.2 7 Oeste 10 Sudoeste 0 -- -- 80
2021-01-04 20:00:00 1 6 Oeste 16 Oeste 0 -- -- 78
2021-01-04 19:00:00 1.6 8 Oeste 17 Oeste 0 -- -- 74
2021-01-04 18:00:00 2.8 8 Oeste 25 Oeste 0 -- -- 69
2021-01-04 17:00:00 5.2 14 Oeste 23 Oeste 0 -- -- 63
2021-01-04 16:00:00 4.9 11 Noroeste 23 Oeste 0 -- -- 65
2021-01-04 15:00:00 3.9 11 Noroeste 21 Oeste 0 -- -- 70
2021-01-04 14:00:00 4.4 16 Oeste 25 Oeste 0 -- -- 70
2021-01-04 13:00:00 4.5 17 Oeste 26 Oeste 0 -- -- 69
2021-01-04 12:00:00 3.8 10 Oeste 22 Oeste 0 -- -- 76
2021-01-04 11:00:00 1.4 14 Oeste 21 Oeste 0 -- -- 83
2021-01-04 10:00:00 0.2 6 Oeste 19 Oeste 0 -- -- 88
2021-01-04 09:00:00 0.1 14 Sudoeste 27 Oeste 0 -- -- 90
2021-01-04 08:00:00 -0.2 18 Oeste 26 Sudoeste 0 -- -- 88
2021-01-04 07:00:00 -0.4 14 Oeste 21 Oeste 0 -- -- 89
2021-01-04 06:00:00 -0.3 12 Oeste 19 Oeste 0 -- -- 91
2021-01-04 05:00:00 0 15 Oeste 19 Oeste 0 -- -- 91
2021-01-04 04:00:00 0 8 Oeste 13 Oeste 0 -- -- 94
2021-01-04 03:00:00 0.6 8 Oeste 18 Oeste 0 -- -- 94
2021-01-04 02:00:00 1.5 9 Oeste 21 Oeste 0 -- -- 91
2021-01-04 01:00:00 1.4 12 Oeste 19 Oeste 0 -- -- 91
2021-01-04 00:00:00 2 12 Oeste 31 Oeste 0 -- -- 90
2021-01-03 23:00:00 2.5 17 Oeste 26 Oeste 0 -- -- 83
2021-01-03 22:00:00 2.4 12 Oeste 25 Oeste 0 -- -- 82
2021-01-03 21:00:00 2.6 15 Sudoeste 24 Sudoeste 0 -- -- 81
2021-01-03 20:00:00 2.8 14 Sudoeste 31 Oeste 0 -- -- 78
2021-01-03 19:00:00 3.4 14 Sudoeste 33 Oeste 0 -- -- 73
2021-01-03 18:00:00 3.7 14 Oeste 36 Oeste 0 -- -- 70
2021-01-03 17:00:00 6 19 Oeste 33 Oeste 0 -- -- 63
2021-01-03 16:00:00 4.9 15 Oeste 29 Oeste 0 -- -- 71
2021-01-03 15:00:00 4.7 20 Oeste 36 Oeste 0 -- -- 74
2021-01-03 14:00:00 5.8 26 Oeste 40 Oeste 0 -- -- 69
2021-01-03 13:00:00 4.6 22 Oeste 39 Oeste 0 -- -- 75
2021-01-03 12:00:00 2.6 16 Oeste 28 Oeste 0 -- -- 87
2021-01-03 11:00:00 0.8 20 Oeste 28 Oeste 0 -- -- 92
2021-01-03 10:00:00 -0.3 9 Oeste 17 Sudoeste 0 -- -- 96
2021-01-03 09:00:00 -1.2 6 Oeste 21 Sudoeste 0 -- -- 99
2021-01-03 08:00:00 -1.3 13 Oeste 20 Oeste 0 -- -- 98
2021-01-03 07:00:00 -2 10 Sudoeste 14 Sudoeste 0 -- -- 98
2021-01-03 06:00:00 -2.6 2 Oeste 21 Sudoeste 0 -- -- 95
2021-01-03 05:00:00 -1.3 12 Sudoeste 15 Sudoeste 0 -- -- 94
2021-01-03 04:00:00 -1.1 10 Sudoeste 15 Sudoeste 0 -- -- 90
2021-01-03 03:00:00 -1.9 3 Oeste 12 Oeste 0 -- -- 90
2021-01-03 02:00:00 -0.9 10 Sudoeste 13 Oeste 0 -- -- 90
2021-01-03 01:00:00 -0.2 10 Oeste 17 Oeste 0 -- -- 84
2021-01-03 00:00:00 -0.1 10 Oeste 16 Oeste 0 -- -- 83
2021-01-02 23:00:00 0.1 4 Oeste 8 Oeste 0 -- -- 75
2021-01-02 22:00:00 0.6 6 Oeste 10 Oeste 0 -- -- 72
2021-01-02 21:00:00 1.8 7 Oeste 16 Oeste 0 -- -- 71
2021-01-02 20:00:00 2.4 12 Oeste 20 Oeste 0 -- -- 73
2021-01-02 19:00:00 2.7 12 Sudoeste 15 Sudoeste 0 -- -- 73
2021-01-02 18:00:00 3.8 12 Oeste 17 Oeste 0 -- -- 68
2021-01-02 17:00:00 7.4 12 Oeste 17 Oeste 0 -- -- 51
2021-01-02 16:00:00 8.1 12 Noroeste 18 Noroeste 0 -- -- 42
2021-01-02 15:00:00 7.9 8 Nordeste 13 Norte 0 -- -- 44
2021-01-02 14:00:00 7.3 5 Norte 13 Oeste 0 -- -- 52